Time,TemperatureF,DewpointF,PressureIn,WindDirection,WindDirectionDegrees,WindSpeedMPH,WindSpeedGustMPH,Humidity,HourlyPrecipIn,Conditions,Clouds,dailyrainin,SoftwareType,DateUTC
2013-03-04 00:01:00,37.0,25.0,-100.00,SSE,150,2.0,3.0,62,-99.99,,,-99.99,,2013-03-04 06:01:00,
2013-03-04 00:11:00,37.0,25.0,-100.00,SSE,150,2.0,2.0,61,-99.99,,,-99.99,,2013-03-04 06:11:00,
2013-03-04 00:21:00,37.0,25.0,-100.00,SSE,150,2.0,2.0,61,-99.99,,,-99.99,,2013-03-04 06:21:00,
2013-03-04 00:32:00,37.0,24.0,-100.00,SE,140,2.0,3.0,60,-99.99,,,-99.99,,2013-03-04 06:32:00,
2013-03-04 00:42:00,37.0,24.0,-100.00,SE,140,2.0,3.0,60,-99.99,,,-99.99,,2013-03-04 06:42:00,
2013-03-04 00:52:00,37.0,24.0,-100.00,SSE,160,3.0,3.0,60,-99.99,,,-99.99,,2013-03-04 06:52:00,
2013-03-04 01:01:00,37.0,24.0,-100.00,SSE,150,3.0,4.0,58,-99.99,,,-99.99,,2013-03-04 07:01:00,
2013-03-04 01:11:00,37.0,24.0,-100.00,SSE,150,3.0,4.0,58,-99.99,,,-99.99,,2013-03-04 07:11:00,
2013-03-04 01:21:00,37.0,24.0,-100.00,SSE,155,3.0,3.0,58,-99.99,,,-99.99,,2013-03-04 07:21:00,
2013-03-04 01:32:00,37.0,24.0,-100.00,SSE,155,3.0,3.0,58,-99.99,,,-99.99,,2013-03-04 07:32:00,
2013-03-04 01:42:00,37.0,24.0,-100.00,SSE,155,3.0,3.0,58,-99.99,,,-99.99,,2013-03-04 07:42:00,
2013-03-04 01:52:00,37.0,24.0,-100.00,SE,140,3.0,6.0,58,-99.99,,,-99.99,,2013-03-04 07:52:00,
2013-03-04 02:02:00,37.0,24.0,-100.00,SE,140,3.0,6.0,58,-99.99,,,-99.99,,2013-03-04 08:02:00,
2013-03-04 02:11:00,37.0,24.0,-100.00,SSE,150,4.0,4.0,58,-99.99,,,-99.99,,2013-03-04 08:11:00,
2013-03-04 02:22:00,37.0,23.0,-100.00,SSE,160,6.0,8.0,56,-99.99,,,-99.99,,2013-03-04 08:22:00,
2013-03-04 02:32:00,37.0,23.0,-100.00,SSE,160,6.0,8.0,56,-99.99,,,-99.99,,2013-03-04 08:32:00,
2013-03-04 02:42:00,37.0,23.0,-100.00,SE,145,6.0,8.0,56,-99.99,,,-99.99,,2013-03-04 08:42:00,
2013-03-04 02:52:00,37.0,23.0,-100.00,SE,125,2.0,3.0,57,-99.99,,,-99.99,,2013-03-04 08:52:00,
2013-03-04 03:01:00,37.0,23.0,-100.00,SE,125,2.0,3.0,57,-99.99,,,-99.99,,2013-03-04 09:01:00,
2013-03-04 03:11:00,37.0,23.0,-100.00,SE,140,3.0,3.0,58,-99.99,,,-99.99,,2013-03-04 09:11:00,
2013-03-04 03:21:00,37.0,23.0,-100.00,SSE,155,6.0,6.0,57,-99.99,,,-99.99,,2013-03-04 09:21:00,
2013-03-04 03:32:00,37.0,23.0,-100.00,SSE,155,6.0,6.0,57,-99.99,,,-99.99,,2013-03-04 09:32:00,
2013-03-04 03:42:00,37.0,23.0,-100.00,SE,145,4.0,4.0,56,-99.99,,,-99.99,,2013-03-04 09:42:00,
2013-03-04 03:52:00,37.0,23.0,-100.00,SE,130,6.0,6.0,55,-99.99,,,-99.99,,2013-03-04 09:52:00,
2013-03-04 04:01:00,37.0,23.0,-100.00,SE,130,6.0,6.0,55,-99.99,,,-99.99,,2013-03-04 10:01:00,
2013-03-04 04:11:00,37.0,22.0,-100.00,SSE,150,6.0,6.0,54,-99.99,,,-99.99,,2013-03-04 10:11:00,
2013-03-04 04:22:00,37.0,22.0,-100.00,SE,145,6.0,9.0,53,-99.99,,,-99.99,,2013-03-04 10:22:00,
2013-03-04 04:32:00,37.0,22.0,-100.00,SE,145,6.0,9.0,53,-99.99,,,-99.99,,2013-03-04 10:32:00,
2013-03-04 04:42:00,37.0,22.0,-100.00,SE,145,6.0,9.0,53,-99.99,,,-99.99,,2013-03-04 10:42:00,
2013-03-04 04:52:00,37.0,22.0,-100.00,SE,145,6.0,6.0,53,-99.99,,,-99.99,,2013-03-04 10:52:00,
2013-03-04 05:02:00,37.0,22.0,-100.00,SE,145,6.0,6.0,53,-99.99,,,-99.99,,2013-03-04 11:02:00,
2013-03-04 05:11:00,37.0,22.0,-100.00,SE,140,6.0,6.0,54,-99.99,,,-99.99,,2013-03-04 11:11:00,
2013-03-04 05:22:00,37.0,22.0,-100.00,SSE,150,6.0,10.0,53,-99.99,,,-99.99,,2013-03-04 11:22:00,
2013-03-04 05:32:00,37.0,22.0,-100.00,SSE,150,6.0,10.0,53,-99.99,,,-99.99,,2013-03-04 11:32:00,
2013-03-04 05:42:00,37.0,22.0,-100.00,SE,145,6.0,9.0,53,-99.99,,,-99.99,,2013-03-04 11:42:00,
2013-03-04 05:52:00,37.0,21.0,-100.00,SE,145,6.0,6.0,52,-99.99,,,-99.99,,2013-03-04 11:52:00,
2013-03-04 06:01:00,37.0,21.0,-100.00,SE,145,6.0,6.0,52,-99.99,,,-99.99,,2013-03-04 12:01:00,
2013-03-04 06:11:00,37.0,21.0,-100.00,SE,145,4.0,8.0,51,-99.99,,,-99.99,,2013-03-04 12:11:00,
2013-03-04 06:22:00,38.0,21.0,-100.00,SE,145,8.0,10.0,50,-99.99,,,-99.99,,2013-03-04 12:22:00,
2013-03-04 06:32:00,38.0,21.0,-100.00,SE,145,8.0,10.0,50,-99.99,,,-99.99,,2013-03-04 12:32:00,
2013-03-04 06:42:00,38.0,21.0,-100.00,SE,145,6.0,6.0,50,-99.99,,,-99.99,,2013-03-04 12:42:00,
2013-03-04 06:53:00,38.0,20.0,-100.00,SE,140,4.0,4.0,49,-99.99,,,-99.99,,2013-03-04 12:53:00,
2013-03-04 07:02:00,38.0,20.0,-100.00,SE,140,4.0,4.0,49,-99.99,,,-99.99,,2013-03-04 13:02:00,
2013-03-04 07:11:00,38.0,20.0,-100.00,SE,130,6.0,11.0,49,-99.99,,,-99.99,,2013-03-04 13:11:00,
2013-03-04 07:21:00,38.0,20.0,-100.00,SE,135,6.0,9.0,49,-99.99,,,-99.99,,2013-03-04 13:21:00,
2013-03-04 07:32:00,38.0,20.0,-100.00,SE,135,6.0,9.0,49,-99.99,,,-99.99,,2013-03-04 13:32:00,
2013-03-04 07:42:00,38.0,21.0,-100.00,SE,135,12.0,16.0,50,-99.99,,,-99.99,,2013-03-04 13:42:00,
2013-03-04 07:52:00,38.0,21.0,-100.00,SE,140,9.0,10.0,49,-99.99,,,-99.99,,2013-03-04 13:52:00,
2013-03-04 08:01:00,38.0,21.0,-100.00,SE,140,9.0,10.0,49,-99.99,,,-99.99,,2013-03-04 14:01:00,
2013-03-04 08:11:00,39.0,21.0,-100.00,SE,145,9.0,10.0,49,-99.99,,,-99.99,,2013-03-04 14:11:00,
2013-03-04 08:22:00,39.0,21.0,-100.00,SE,145,9.0,14.0,48,-99.99,,,-99.99,,2013-03-04 14:22:00,
2013-03-04 08:32:00,39.0,21.0,-100.00,SE,145,9.0,14.0,48,-99.99,,,-99.99,,2013-03-04 14:32:00,
2013-03-04 08:42:00,40.0,21.0,-100.00,SE,145,8.0,10.0,47,-99.99,,,-99.99,,2013-03-04 14:42:00,
2013-03-04 08:52:00,41.0,21.0,-100.00,SE,145,6.0,10.0,46,-99.99,,,-99.99,,2013-03-04 14:52:00,
2013-03-04 09:01:00,41.0,21.0,-100.00,SE,145,6.0,10.0,46,-99.99,,,-99.99,,2013-03-04 15:01:00,
2013-03-04 09:11:00,41.0,22.0,-100.00,SE,140,10.0,12.0,45,-99.99,,,-99.99,,2013-03-04 15:11:00,
2013-03-04 09:22:00,42.0,22.0,-100.00,SE,140,16.0,24.0,44,-99.99,,,-99.99,,2013-03-04 15:22:00,
2013-03-04 09:32:00,42.0,22.0,-100.00,SE,140,16.0,24.0,44,-99.99,,,-99.99,,2013-03-04 15:32:00,
2013-03-04 09:42:00,42.0,22.0,-100.00,SE,140,16.0,24.0,44,-99.99,,,-99.99,,2013-03-04 15:42:00,
2013-03-04 09:52:00,43.0,22.0,-100.00,SE,135,12.0,16.0,42,-99.99,,,-99.99,,2013-03-04 15:52:00,
2013-03-04 10:02:00,43.0,22.0,-100.00,SE,135,12.0,16.0,42,-99.99,,,-99.99,,2013-03-04 16:02:00,
2013-03-04 10:11:00,44.0,22.0,-100.00,SE,135,12.0,16.0,41,-99.99,,,-99.99,,2013-03-04 16:11:00,
2013-03-04 10:21:00,45.0,22.0,-100.00,SE,140,18.0,21.0,40,-99.99,,,-99.99,,2013-03-04 16:21:00,
2013-03-04 10:32:00,45.0,22.0,-100.00,SE,140,18.0,21.0,40,-99.99,,,-99.99,,2013-03-04 16:32:00,
2013-03-04 10:42:00,45.0,22.0,-100.00,SE,140,18.0,21.0,40,-99.99,,,-99.99,,2013-03-04 16:42:00,
2013-03-04 11:11:00,47.0,23.0,-100.00,SSE,150,18.0,23.0,39,-99.99,,,-99.99,,2013-03-04 17:11:00,
2013-03-04 11:22:00,47.0,24.0,-100.00,SE,130,17.0,24.0,39,-99.99,,,-99.99,,2013-03-04 17:22:00,
2013-03-04 11:32:00,47.0,24.0,-100.00,SE,130,17.0,24.0,39,-99.99,,,-99.99,,2013-03-04 17:32:00,
2013-03-04 11:42:00,47.0,24.0,-100.00,SE,130,17.0,24.0,39,-99.99,,,-99.99,,2013-03-04 17:42:00,
2013-03-04 11:52:00,49.0,25.0,-100.00,SSE,150,16.0,18.0,39,-99.99,,,-99.99,,2013-03-04 17:52:00,
2013-03-04 12:01:00,49.0,25.0,-100.00,SSE,150,16.0,18.0,39,-99.99,,,-99.99,,2013-03-04 18:01:00,
2013-03-04 12:11:00,49.0,25.0,-100.00,SSE,150,16.0,18.0,39,-99.99,,,-99.99,,2013-03-04 18:11:00,
2013-03-04 12:22:00,51.0,26.0,-100.00,South,170,16.0,21.0,38,-99.99,,,-99.99,,2013-03-04 18:22:00,
2013-03-04 12:32:00,51.0,26.0,-100.00,South,170,16.0,21.0,38,-99.99,,,-99.99,,2013-03-04 18:32:00,
2013-03-04 12:42:00,51.0,26.0,-100.00,South,170,16.0,21.0,38,-99.99,,,-99.99,,2013-03-04 18:42:00,
2013-03-04 13:11:00,51.0,27.0,-100.00,SSE,155,18.0,21.0,39,-99.99,,,-99.99,,2013-03-04 19:11:00,
2013-03-04 13:22:00,51.0,27.0,-100.00,SSE,155,16.0,18.0,39,-99.99,,,-99.99,,2013-03-04 19:22:00,
2013-03-04 13:32:00,51.0,27.0,-100.00,SSE,155,16.0,18.0,39,-99.99,,,-99.99,,2013-03-04 19:32:00,
2013-03-04 13:42:00,51.0,27.0,-100.00,SSE,165,14.0,16.0,39,-99.99,,,-99.99,,2013-03-04 19:42:00,
2013-03-04 13:52:00,51.0,28.0,-100.00,SE,140,12.0,18.0,40,-99.99,,,-99.99,,2013-03-04 19:52:00,
2013-03-04 14:02:00,51.0,28.0,-100.00,SE,140,12.0,18.0,40,-99.99,,,-99.99,,2013-03-04 20:02:00,
2013-03-04 14:11:00,51.0,28.0,-100.00,SE,140,12.0,18.0,40,-99.99,,,-99.99,,2013-03-04 20:11:00,
2013-03-04 14:32:00,52.0,27.0,-100.00,SSE,150,9.0,10.0,39,-99.99,,,-99.99,,2013-03-04 20:32:00,
2013-03-04 14:42:00,52.0,27.0,-100.00,SSE,150,9.0,10.0,39,-99.99,,,-99.99,,2013-03-04 20:42:00,
2013-03-04 14:52:00,52.0,29.0,-100.00,SSE,160,6.0,9.0,41,-99.99,,,-99.99,,2013-03-04 20:52:00,
2013-03-04 15:00:00,52.0,30.0,-100.00,SSE,155,14.0,18.0,43,-99.99,,,-99.99,,2013-03-04 21:00:00,
2013-03-04 15:02:00,52.0,29.0,-100.00,SSE,160,6.0,9.0,41,-99.99,,,-99.99,,2013-03-04 21:02:00,
2013-03-04 15:12:00,52.0,30.0,-100.00,SSE,165,6.0,8.0,42,-99.99,,,-99.99,,2013-03-04 21:12:00,
2013-03-04 15:22:00,52.0,29.0,-100.00,South,175,6.0,9.0,41,-99.99,,,-99.99,,2013-03-04 21:22:00,
2013-03-04 15:32:00,52.0,29.0,-100.00,South,175,6.0,9.0,41,-99.99,,,-99.99,,2013-03-04 21:32:00,
2013-03-04 15:42:00,52.0,30.0,-100.00,SSE,155,14.0,18.0,43,-99.99,,,-99.99,,2013-03-04 21:42:00,
2013-03-04 15:53:00,52.0,30.0,-100.00,SSE,155,14.0,18.0,43,-99.99,,,-99.99,,2013-03-04 21:53:00,
2013-03-04 16:00:00,52.0,32.0,-100.00,SSE,165,10.0,12.0,46,-99.99,,,-99.99,,2013-03-04 22:00:00,
2013-03-04 16:22:00,53.0,32.0,-100.00,South,170,12.0,14.0,45,-99.99,,,-99.99,,2013-03-04 22:22:00,
2013-03-04 16:32:00,53.0,32.0,-100.00,South,170,12.0,14.0,45,-99.99,,,-99.99,,2013-03-04 22:32:00,
2013-03-04 16:42:00,52.0,32.0,-100.00,SSE,165,10.0,12.0,46,-99.99,,,-99.99,,2013-03-04 22:42:00,
2013-03-04 16:52:00,52.0,32.0,-100.00,SSE,165,10.0,12.0,46,-99.99,,,-99.99,,2013-03-04 22:52:00,
2013-03-04 17:22:00,52.0,34.0,-100.00,South,170,6.0,10.0,49,-99.99,,,-99.99,,2013-03-04 23:22:00,
2013-03-04 17:32:00,52.0,34.0,-100.00,South,170,6.0,10.0,49,-99.99,,,-99.99,,2013-03-04 23:32:00,
2013-03-04 17:42:00,52.0,34.0,-100.00,South,170,6.0,10.0,49,-99.99,,,-99.99,,2013-03-04 23:42:00,
2013-03-04 17:52:00,52.0,35.0,-100.00,SSE,155,6.0,6.0,52,-99.99,,,-99.99,,2013-03-04 23:52:00,
2013-03-04 18:02:00,52.0,35.0,-100.00,SSE,155,6.0,6.0,52,-99.99,,,-99.99,,2013-03-05 00:02:00,
2013-03-04 18:11:00,52.0,35.0,-100.00,SSE,155,6.0,6.0,52,-99.99,,,-99.99,,2013-03-05 00:11:00,
2013-03-04 18:21:00,51.0,36.0,-100.00,SSE,155,9.0,10.0,56,-99.99,,,-99.99,,2013-03-05 00:21:00,
2013-03-04 18:32:00,51.0,36.0,-100.00,SSE,155,9.0,10.0,56,-99.99,,,-99.99,,2013-03-05 00:32:00,
2013-03-04 18:42:00,51.0,36.0,-100.00,SSE,155,9.0,10.0,56,-99.99,,,-99.99,,2013-03-05 00:42:00,
2013-03-04 18:52:00,51.0,37.0,-100.00,SSE,150,9.0,14.0,57,-99.99,,,-99.99,,2013-03-05 00:52:00,
2013-03-04 19:01:00,51.0,37.0,-100.00,SSE,150,9.0,14.0,57,-99.99,,,-99.99,,2013-03-05 01:01:00,
2013-03-04 19:12:00,52.0,37.0,-100.00,SE,130,8.0,10.0,57,-99.99,,,-99.99,,2013-03-05 01:12:00,
2013-03-04 19:22:00,52.0,37.0,-100.00,SSE,155,3.0,4.0,58,-99.99,,,-99.99,,2013-03-05 01:22:00,
2013-03-04 19:32:00,52.0,37.0,-100.00,SSE,155,3.0,4.0,58,-99.99,,,-99.99,,2013-03-05 01:32:00,
2013-03-04 19:42:00,52.0,37.0,-100.00,SSE,155,3.0,4.0,58,-99.99,,,-99.99,,2013-03-05 01:42:00,
2013-03-04 19:52:00,52.0,38.0,-100.00,SSE,160,3.0,4.0,59,-99.99,,,-99.99,,2013-03-05 01:52:00,
2013-03-04 20:01:00,52.0,38.0,-100.00,SSE,160,3.0,4.0,59,-99.99,,,-99.99,,2013-03-05 02:01:00,
2013-03-04 20:11:00,51.0,37.0,-100.00,SSE,165,2.0,3.0,59,-99.99,,,-99.99,,2013-03-05 02:11:00,
2013-03-04 20:22:00,51.0,37.0,-100.00,South,170,1.0,1.0,58,-99.99,,,-99.99,,2013-03-05 02:22:00,
2013-03-04 20:32:00,51.0,37.0,-100.00,South,170,1.0,1.0,58,-99.99,,,-99.99,,2013-03-05 02:32:00,
2013-03-04 20:42:00,52.0,37.0,-100.00,South,175,0.0,1.0,56,-99.99,,,-99.99,,2013-03-05 02:42:00,
2013-03-04 20:52:00,52.0,36.0,-100.00,SE,125,1.0,3.0,54,-99.99,,,-99.99,,2013-03-05 02:52:00,
2013-03-04 21:02:00,52.0,36.0,-100.00,SE,125,1.0,3.0,54,-99.99,,,-99.99,,2013-03-05 03:02:00,
2013-03-04 21:12:00,52.0,36.0,-100.00,South,170,3.0,4.0,54,-99.99,,,-99.99,,2013-03-05 03:12:00,
2013-03-04 21:22:00,52.0,36.0,-100.00,SE,140,1.0,3.0,54,-99.99,,,-99.99,,2013-03-05 03:22:00,
2013-03-04 21:32:00,52.0,36.0,-100.00,SE,140,1.0,3.0,54,-99.99,,,-99.99,,2013-03-05 03:32:00,
2013-03-04 21:42:00,52.0,36.0,-100.00,South,180,3.0,3.0,54,-99.99,,,-99.99,,2013-03-05 03:42:00,
2013-03-04 21:52:00,53.0,36.0,-100.00,SSW,200,1.0,2.0,53,-99.99,,,-99.99,,2013-03-05 03:52:00,
2013-03-04 22:02:00,53.0,36.0,-100.00,SSW,200,1.0,2.0,53,-99.99,,,-99.99,,2013-03-05 04:02:00,
2013-03-04 22:12:00,53.0,35.0,-100.00,SSE,155,3.0,3.0,51,-99.99,,,-99.99,,2013-03-05 04:12:00,
2013-03-04 22:22:00,52.0,35.0,-100.00,SSE,165,3.0,4.0,52,-99.99,,,-99.99,,2013-03-05 04:22:00,
2013-03-04 22:32:00,52.0,35.0,-100.00,SSE,165,3.0,4.0,52,-99.99,,,-99.99,,2013-03-05 04:32:00,
2013-03-04 22:42:00,52.0,34.0,-100.00,SSE,155,4.0,4.0,49,-99.99,,,-99.99,,2013-03-05 04:42:00,
2013-03-04 22:52:00,52.0,33.0,-100.00,SSE,150,3.0,3.0,49,-99.99,,,-99.99,,2013-03-05 04:52:00,
2013-03-04 23:02:00,52.0,33.0,-100.00,SSE,150,3.0,3.0,49,-99.99,,,-99.99,,2013-03-05 05:02:00,
2013-03-04 23:12:00,52.0,33.0,-100.00,SSE,150,3.0,4.0,48,-99.99,,,-99.99,,2013-03-05 05:12:00,
2013-03-04 23:22:00,52.0,33.0,-100.00,SE,140,12.0,14.0,49,-99.99,,,-99.99,,2013-03-05 05:22:00,
2013-03-04 23:32:00,52.0,33.0,-100.00,SE,140,12.0,14.0,49,-99.99,,,-99.99,,2013-03-05 05:32:00,
2013-03-04 23:42:00,52.0,34.0,-100.00,SE,145,8.0,10.0,50,-99.99,,,-99.99,,2013-03-05 05:42:00,
2013-03-04 23:52:00,51.0,34.0,-100.00,SSE,160,6.0,9.0,53,-99.99,,,-99.99,,2013-03-05 05:52:00,